Location: Unspecified
(52.4292°N, 19.3359°E)
Time: 23:30:47
(UTC+02:00)

A-11 Canister half - Pass Details

Date: 19 May 2024
Orbit: 1515 x 1685 km, 47.2° (Epoch: 19 June)

Event Time Altitude Azimuth Distance (km) Brightness Sun altitude
Rises 04:16:41 0° 229° (SW) 4,737 - -3.7°
Exits shadow 04:18:00 - 227° (SW) 4,321 10.6 -3.6°
Reaches altitude 10° 04:19:54 10° 224° (SW) 3,733 10.4 -3.3°
Maximum altitude 04:28:42 47° 154° (SSE) 1,938 9.5 -2.3°
Drops below altitude 10° 04:37:21 10° 85° (E) 3,678 12.1 -1.2°
Sets 04:40:30 0° 80° (E) 4,661 12.9 -0.8°
